When you browse on this site, cookies collect data to enhance your experience and personalize the content and advertising you see.
Visit our Privacy Policy to learn more. By continuing to use the site, you agree to this use of cookies and data.
  • In Österreich
  • Länderverzeichnis
  • Für 7 Tage
  • Wassertemperatur
  • Wetterkarte
  • News
  • Widgets
  • user-avatar
    Anmelden

    Stündliche Wetter Potosi

    Heute, 19 Februar, Mittwoch

    Zeit Temperatur Niederschläge Wind Luftdruck Luftfeuchtigkeit
    00:00 +8°C° 0.6 mm 3 m/S 468 mmHg 84%
    01:00 +8°C° 0.6 mm 3 m/S 468 mmHg 86%
    02:00 +8°C° 0.6 mm 2 m/S 468 mmHg 87%
    03:00 +7°C° 0.3 mm 2 m/S 467 mmHg 87%
    04:00 +8°C° 0.3 mm 1 m/S 467 mmHg 87%
    05:00 +8°C° 0.3 mm 1 m/S 467 mmHg 86%
    06:00 +8°C° 0 mm 1 m/S 467 mmHg 84%
    07:00 +9°C° 0 mm 1 m/S 468 mmHg 82%
    08:00 +8°C° 0 mm 0 m/S 468 mmHg 80%
    09:00 +10°C° 0.2 mm 1 m/S 469 mmHg 74%
    10:00 +12°C° 0.2 mm 1 m/S 470 mmHg 69%
    11:00 +13°C° 0.2 mm 1 m/S 471 mmHg 63%
    12:00 +14°C° 0.8 mm 1 m/S 470 mmHg 61%
    13:00 +14°C° 0.8 mm 1 m/S 470 mmHg 59%
    14:00 +15°C° 0.8 mm 1 m/S 470 mmHg 57%
    15:00 +15°C° 1 mm 2 m/S 469 mmHg 58%
    16:00 +15°C° 1 mm 2 m/S 469 mmHg 58%
    17:00 +15°C° 1 mm 2 m/S 468 mmHg 59%
    18:00 +13°C° 1.9 mm 2 m/S 468 mmHg 66%
    19:00 +11°C° 1.9 mm 3 m/S 467 mmHg 72%
    20:00 +10°C° 1.9 mm 3 m/S 467 mmHg 78%
    21:00 +10°C° 1 mm 3 m/S 467 mmHg 78%
    22:00 +10°C° 1 mm 2 m/S 467 mmHg 78%
    23:00 +10°C° 1 mm 1 m/S 468 mmHg 79%

    Morgen, 20 Februar, Donnerstag

    Zeit Temperatur Niederschläge Wind Luftdruck Luftfeuchtigkeit
    00:00 +9°C° 0.4 mm 2 m/S 467 mmHg 81%
    01:00 +9°C° 0.4 mm 2 m/S 467 mmHg 83%
    02:00 +8°C° 0.4 mm 2 m/S 466 mmHg 85%
    03:00 +8°C° 0.6 mm 2 m/S 466 mmHg 86%
    04:00 +8°C° 0.6 mm 2 m/S 467 mmHg 87%
    05:00 +8°C° 0.6 mm 2 m/S 467 mmHg 88%
    06:00 +7°C° 2 mm 2 m/S 467 mmHg 90%
    07:00 +7°C° 2 mm 2 m/S 467 mmHg 92%
    08:00 +5°C° 2 mm 3 m/S 466 mmHg 93%
    09:00 +5°C° 2.4 mm 2 m/S 466 mmHg 93%
    10:00 +5°C° 2.4 mm 2 m/S 466 mmHg 92%
    11:00 +5°C° 2.4 mm 1 m/S 466 mmHg 92%
    12:00 +6°C° 0.4 mm 1 m/S 467 mmHg 89%
    13:00 +7°C° 0.4 mm 1 m/S 467 mmHg 87%
    14:00 +8°C° 0.4 mm 1 m/S 468 mmHg 84%
    15:00 +8°C° 0.6 mm 1 m/S 468 mmHg 86%
    16:00 +7°C° 0.6 mm 2 m/S 467 mmHg 88%
    17:00 +7°C° 0.6 mm 2 m/S 467 mmHg 90%
    18:00 +7°C° 0.5 mm 2 m/S 467 mmHg 90%
    19:00 +7°C° 0.5 mm 2 m/S 467 mmHg 91%
    20:00 +7°C° 0.5 mm 2 m/S 467 mmHg 91%
    21:00 +7°C° 0.1 mm 2 m/S 467 mmHg 91%
    22:00 +7°C° 0.1 mm 2 m/S 468 mmHg 91%
    23:00 +7°C° 0.1 mm 2 m/S 468 mmHg 91%

    übermorgen, 21 Februar, Freitag

    Zeit Temperatur Niederschläge Wind Luftdruck Luftfeuchtigkeit
    00:00 +7°C° 0.4 mm 2 m/S 468 mmHg 91%
    01:00 +6°C° 0.4 mm 2 m/S 468 mmHg 91%
    02:00 +7°C° 0.4 mm 1 m/S 467 mmHg 91%
    09:00 +7°C° 0.8 mm 2 m/S 468 mmHg 88%
    10:00 +7°C° 0.8 mm 3 m/S 468 mmHg 88%
    11:00 +7°C° 0.8 mm 3 m/S 468 mmHg 88%
    12:00 +7°C° 0.4 mm 3 m/S 468 mmHg 87%
    13:00 +7°C° 0.4 mm 3 m/S 468 mmHg 86%
    14:00 +7°C° 0.4 mm 3 m/S 468 mmHg 85%
    15:00 +7°C° 0.2 mm 3 m/S 467 mmHg 84%
    16:00 +7°C° 0.2 mm 3 m/S 467 mmHg 83%
    17:00 +7°C° 0.2 mm 2 m/S 467 mmHg 82%
    18:00 +7°C° 0 mm 2 m/S 467 mmHg 84%
    19:00 +6°C° 0 mm 2 m/S 467 mmHg 86%
    20:00 +6°C° 0 mm 2 m/S 467 mmHg 89%
    21:00 +6°C° 0.1 mm 2 m/S 468 mmHg 90%
    22:00 +6°C° 0.1 mm 2 m/S 468 mmHg 91%
    23:00 +6°C° 0.1 mm 2 m/S 468 mmHg 91%

    22 Februar, Samstag

    Zeit Temperatur Niederschläge Wind Luftdruck Luftfeuchtigkeit
    00:00 +6°C° 0.1 mm 2 m/S 468 mmHg 92%
    01:00 +6°C° 0.1 mm 2 m/S 468 mmHg 92%
    02:00 +7°C° 0.1 mm 1 m/S 468 mmHg 93%
    03:00 +6°C° 0.1 mm 2 m/S 468 mmHg 92%
    04:00 +6°C° 0.1 mm 2 m/S 467 mmHg 92%
    05:00 +5°C° 0.1 mm 2 m/S 467 mmHg 92%
    06:00 +6°C° 0.1 mm 2 m/S 468 mmHg 90%
    07:00 +7°C° 0.1 mm 1 m/S 468 mmHg 88%
    08:00 +7°C° 0.1 mm 1 m/S 468 mmHg 87%
    09:00 +7°C° 0.1 mm 2 m/S 469 mmHg 82%
    10:00 +8°C° 0.1 mm 2 m/S 469 mmHg 77%
    11:00 +9°C° 0.1 mm 2 m/S 470 mmHg 72%
    12:00 +10°C° 0.3 mm 2 m/S 470 mmHg 72%
    13:00 +10°C° 0.3 mm 3 m/S 469 mmHg 71%
    14:00 +10°C° 0.3 mm 3 m/S 469 mmHg 71%
    15:00 +10°C° 0.2 mm 3 m/S 469 mmHg 71%
    16:00 +10°C° 0.2 mm 3 m/S 468 mmHg 72%
    17:00 +10°C° 0.2 mm 4 m/S 467 mmHg 73%
    18:00 +9°C° 0.1 mm 3 m/S 467 mmHg 77%
    19:00 +8°C° 0.1 mm 3 m/S 467 mmHg 81%
    20:00 +8°C° 0.1 mm 3 m/S 467 mmHg 85%
    21:00 +7°C° 0 mm 3 m/S 467 mmHg 86%
    22:00 +7°C° 0 mm 3 m/S 467 mmHg 87%
    23:00 +6°C° 0 mm 2 m/S 467 mmHg 87%

    23 Februar, Sonntag

    Zeit Temperatur Niederschläge Wind Luftdruck Luftfeuchtigkeit
    00:00 +6°C° 0 mm 2 m/S 467 mmHg 88%
    01:00 +6°C° 0 mm 2 m/S 466 mmHg 88%
    02:00 +5°C° 0 mm 2 m/S 466 mmHg 88%
    03:00 +6°C° 0 mm 1 m/S 465 mmHg 89%
    04:00 +6°C° 0 mm 1 m/S 465 mmHg 90%
    05:00 +6°C° 0 mm 1 m/S 465 mmHg 90%
    06:00 +7°C° 0 mm 1 m/S 466 mmHg 86%
    07:00 +7°C° 0 mm 1 m/S 466 mmHg 82%
    08:00 +8°C° 0 mm 1 m/S 467 mmHg 78%
    09:00 +10°C° 0 mm 1 m/S 468 mmHg 72%
    10:00 +11°C° 0 mm 1 m/S 469 mmHg 66%
    11:00 +13°C° 0 mm 1 m/S 469 mmHg 60%
    12:00 +13°C° 0.5 mm 2 m/S 469 mmHg 59%
    13:00 +14°C° 0.5 mm 2 m/S 469 mmHg 59%
    14:00 +14°C° 0.5 mm 2 m/S 469 mmHg 59%
    15:00 +14°C° 1.2 mm 2 m/S 468 mmHg 63%
    16:00 +12°C° 1.2 mm 3 m/S 467 mmHg 67%
    17:00 +11°C° 1.2 mm 3 m/S 466 mmHg 72%
    18:00 +10°C° 0.7 mm 3 m/S 466 mmHg 75%
    19:00 +10°C° 0.7 mm 3 m/S 466 mmHg 79%
    20:00 +9°C° 0.7 mm 3 m/S 466 mmHg 83%
    21:00 +8°C° 0.2 mm 2 m/S 466 mmHg 84%
    22:00 +8°C° 0.2 mm 2 m/S 466 mmHg 86%
    23:00 +9°C° 0.2 mm 1 m/S 466 mmHg 88%

    24 Februar, Montag

    Zeit Temperatur Niederschläge Wind Luftdruck Luftfeuchtigkeit
    00:00 +9°C° 0.2 mm 1 m/S 466 mmHg 88%
    01:00 +9°C° 0.2 mm 1 m/S 466 mmHg 88%
    02:00 +8°C° 0.2 mm 1 m/S 466 mmHg 88%
    03:00 +8°C° 0.1 mm 1 m/S 466 mmHg 89%
    04:00 +8°C° 0.1 mm 1 m/S 465 mmHg 89%
    05:00 +7°C° 0.1 mm 0 m/S 465 mmHg 90%
    06:00 +7°C° 0 mm 0 m/S 466 mmHg 88%
    07:00 +9°C° 0 mm 1 m/S 466 mmHg 85%
    08:00 +9°C° 0 mm 1 m/S 467 mmHg 83%
    09:00 +10°C° 0.1 mm 1 m/S 468 mmHg 76%
    10:00 +12°C° 0.1 mm 1 m/S 468 mmHg 68%
    11:00 +13°C° 0.1 mm 1 m/S 469 mmHg 60%
    12:00 +14°C° 1.1 mm 1 m/S 469 mmHg 59%
    13:00 +14°C° 1.1 mm 2 m/S 468 mmHg 58%
    14:00 +15°C° 1.1 mm 2 m/S 468 mmHg 56%
    15:00 +14°C° 1.9 mm 2 m/S 468 mmHg 58%
    16:00 +14°C° 1.9 mm 2 m/S 467 mmHg 59%
    17:00 +14°C° 1.9 mm 2 m/S 466 mmHg 60%
    18:00 +13°C° 1 mm 2 m/S 466 mmHg 64%
    19:00 +12°C° 1 mm 2 m/S 466 mmHg 67%
    20:00 +12°C° 1 mm 2 m/S 466 mmHg 71%
    21:00 +12°C° 0.1 mm 2 m/S 467 mmHg 73%
    22:00 +10°C° 0.1 mm 2 m/S 467 mmHg 75%
    23:00 +10°C° 0.1 mm 2 m/S 467 mmHg 78%
    Mehr zeigen